User: anonymous   Login
Location: Unspecified
(0.0000°N, 0.0000°E)
Time: 07:30:38
(UTC+00:00)
Language:

FALCON 9 R/B - Orbit

View from above orbital plane
View from above orbital plane
View from above satellite
View from above satellite

Ground track
Ground track

The orbit data is extracted from the following two-line orbital elements,

1 37253U 10066K   17297.01984966  .00004431  00000-0  46069-3 0  9992
2 37253  34.4894 159.0124 4271637 120.9976 287.9202  6.90369922169484
Epoch (UTC): 24 October 2017 00:28:35
Eccentricity: 0.4271637
inclination: 34.4894°
perigee height: 296 km
apogee height: 10249 km
right ascension of ascending node: 159.0124°
argument of perigee: 120.9976°
revolutions per day: 6.90369922
mean anomaly at epoch: 287.9202°
orbit number at epoch: 16948

The dashed part of the orbit path shows where the satellite is in the earth's shadow,  

DLR